This demonstration page uses our WeatherBlox Daily Observations layout. Learn more.

Left ArrowRight Arrow

Hourly Observations for February 19, 2019

Temp ( °F °C ) Dew Point ( °F °C ) Humidity (%) Winds ( mph kmh ) Pressure ( in mb ) Visibility ( mi km ) Precip ( " mm )
1:15 pm 13:15 undefined 37 3 14 -10 38 38 N 13 20 30.62 1037 10 16.0934 0 0
1:35 pm 13:35 Sunny 37 3 14 -10 38 38 N 8 13 30.62 1037 10 16.0934 0 0
1:55 pm 13:55 Sunny 37 3 14 -10 38 38 NNW 13 20 30.61 1036 10 16.0934 0 0
2:15 pm 14:15 Sunny 37 3 12 -11 35 35 N 13 20 30.61 1036 10 16.0934 0 0
2:35 pm 14:35 Sunny 37 3 12 -11 35 35 N 9 15 30.61 1036 10 16.0934 0 0
2:55 pm 14:55 Sunny 37 3 12 -11 35 35 N 5 7 30.61 1036 10 16.0934 0 0
3:15 pm 15:15 Sunny 37 3 12 -11 35 35 NNW 9 15 30.6 1036 10 16.0934 0 0
3:35 pm 15:35 Sunny 39 4 12 -11 33 33 N 8 13 30.59 1036 10 16.0934 0 0
3:55 pm 15:55 Sunny 39 4 12 -11 33 33 NNW 7 11 30.6 1036 10 16.0934 0 0
4:15 pm 16:15 Sunny 39 4 12 -11 33 33 NNW 9 15 30.6 1036 10 16.0934 0 0
4:35 pm 16:35 Sunny 37 3 12 -11 35 35 N 5 7 30.61 1036 10 16.0934 0 0
4:55 pm 16:55 Sunny 37 3 12 -11 35 35 N 3 6 30.62 1037 10 16.0934 0 0
5:15 pm 17:15 Sunny 37 3 14 -10 38 38 N 3 6 30.62 1037 10 16.0934 0 0
5:35 pm 17:35 Sunny 37 3 12 -11 35 35 Calm 30.63 1037 10 16.0934 0 0
5:55 pm 17:55 Clear 37 3 12 -11 35 35 NE 5 7 30.62 1037 10 16.0934 0 0
6:15 pm 18:15 Clear 37 3 14 -10 38 38 NNE 5 7 30.62 1037 10 16.0934 0 0
6:35 pm 18:35 Clear 36 2 14 -10 41 41 NNE 3 6 30.63 1037 10 16.0934 0 0
7:15 pm 19:15 Clear 36 2 14 -10 41 41 NE 3 6 30.63 1037 10 16.0934 0 0
7:35 pm 19:35 Clear 36 2 14 -10 41 41 NE 3 6 30.63 1037 10 16.0934 0 0
7:55 pm 19:55 Clear 36 2 14 -10 41 41 Calm 30.63 1037 10 16.0934 0 0
8:15 pm 20:15 Clear 36 2 12 -11 38 38 Calm 30.63 1037 10 16.0934 0 0
8:35 pm 20:35 Clear 36 2 14 -10 41 41 Calm 30.63 1037 10 16.0934 0 0
8:55 pm 20:55 Clear 36 2 14 -10 41 41 Calm 30.62 1037 10 16.0934 0 0
9:15 pm 21:15 Clear 36 2 14 -10 41 41 Calm 30.62 1037 10 16.0934 0 0
9:35 pm 21:35 Clear 32 0 21 -6 64 64 Calm 30.62 1037 10 16.0934 0 0
9:55 pm 21:55 Clear 34 1 21 -6 60 60 Calm 30.62 1037 10 16.0934 0 0
10:15 pm 22:15 Clear 32 0 21 -6 64 64 Calm 30.62 1037 10 16.0934 0 0
10:35 pm 22:35 Clear 34 1 21 -6 60 60 ENE 3 6 30.62 1037 10 16.0934 0 0
10:55 pm 22:55 Clear 34 1 16 -9 48 48 Calm 30.62 1037 10 16.0934 0 0
11:15 pm 23:15 Clear 34 1 23 -5 65 65 Calm 30.62 1037 10 16.0934 0 0
11:35 pm 23:35 Clear 32 0 21 -6 64 64 Calm 30.62 1037 10 16.0934 0 0
11:55 pm 23:55 Clear 34 1 21 -6 60 60 Calm 30.6 1036 10 16.0934 0 0

Powered by AerisWeather